{"data":{"norad_id":65977,"epoch":"2026-09-20T08:14:43.823328Z","epoch_age_seconds":153937,"freshness":"FRESH","line1":"1 65977U 25230D   26263.34356277  .00000106  00000+0  88173-4 0  9999","line2":"2 65977  81.2977 124.3366 0001290  64.3256 295.8032 13.81447795 46922","mean_motion":13.81447795,"eccentricity":0.000129,"inclination_deg":81.2977,"raan_deg":124.3366,"arg_perigee_deg":64.3256,"mean_anomaly_deg":295.8032,"bstar":8.8173e-5,"rev_number":4692,"period_min":104.23846671672,"perigee_km":957.80961142952,"apogee_km":959.70252984174,"semimajor_km":7336.8930706356,"source":"CELESTRAK","updated_at":"2026-09-21T09:00:15.686583Z"}}